• en Suisse
  • Liste des pays
  • À 7 jours
  • Température de l'eau
  • Carte satellitaire
  • Carte météo
  • Widgets météo
  • user-avatar
    Se connecter

    Météo par heure à Bodø

    Ce jour, 16 Juillet, Lundi

    Heure Température Précipitation Vent Pression Humidité
    00:00 +15°C° 0 mm 2 m/s 762 mmHg 94%
    01:00 +14°C° 0 mm 2 m/s 762 mmHg 94%
    02:00 +15°C° 0 mm 2 m/s 762 mmHg 92%
    03:00 +15°C° 0 mm 2 m/s 762 mmHg 90%
    04:00 +16°C° 0 mm 2 m/s 762 mmHg 89%
    05:00 +17°C° 0 mm 2 m/s 762 mmHg 83%
    06:00 +18°C° 0 mm 2 m/s 762 mmHg 77%
    07:00 +20°C° 0 mm 2 m/s 762 mmHg 71%
    08:00 +22°C° 0 mm 1 m/s 762 mmHg 66%
    09:00 +23°C° 0 mm 1 m/s 762 mmHg 60%
    10:00 +24°C° 0 mm 1 m/s 762 mmHg 55%
    11:00 +25°C° 0 mm 1 m/s 762 mmHg 54%
    12:00 +26°C° 0 mm 2 m/s 762 mmHg 53%
    13:00 +26°C° 0 mm 2 m/s 762 mmHg 51%
    14:00 +27°C° 0 mm 2 m/s 761 mmHg 51%
    15:00 +27°C° 0 mm 3 m/s 761 mmHg 51%
    16:00 +27°C° 0 mm 3 m/s 761 mmHg 51%
    17:00 +27°C° 0 mm 3 m/s 761 mmHg 53%
    18:00 +27°C° 0 mm 3 m/s 761 mmHg 55%
    19:00 +27°C° 0 mm 3 m/s 761 mmHg 57%
    20:00 +26°C° 0,1 mm 3 m/s 761 mmHg 61%
    21:00 +24°C° 0,1 mm 3 m/s 761 mmHg 65%
    22:00 +22°C° 0,1 mm 3 m/s 761 mmHg 69%
    23:00 +22°C° 0 mm 3 m/s 761 mmHg 69%

    Demain, 17 Juillet, Mardi

    Heure Température Précipitation Vent Pression Humidité
    00:00 +22°C° 0 mm 3 m/s 761 mmHg 69%
    01:00 +22°C° 0 mm 3 m/s 761 mmHg 69%
    02:00 +22°C° 0 mm 3 m/s 761 mmHg 68%
    03:00 +22°C° 0 mm 3 m/s 761 mmHg 67%
    04:00 +24°C° 0 mm 3 m/s 761 mmHg 66%
    05:00 +24°C° 0,1 mm 3 m/s 762 mmHg 64%
    06:00 +25°C° 0,1 mm 3 m/s 762 mmHg 63%
    07:00 +26°C° 0,1 mm 3 m/s 762 mmHg 61%
    08:00 +26°C° 0 mm 2 m/s 762 mmHg 60%
    09:00 +26°C° 0 mm 2 m/s 762 mmHg 59%
    10:00 +26°C° 0 mm 2 m/s 762 mmHg 58%
    11:00 +27°C° 0 mm 2 m/s 762 mmHg 58%
    12:00 +27°C° 0 mm 2 m/s 762 mmHg 57%
    13:00 +27°C° 0 mm 2 m/s 763 mmHg 57%
    14:00 +27°C° 0 mm 2 m/s 763 mmHg 59%
    15:00 +27°C° 0 mm 2 m/s 763 mmHg 60%
    16:00 +26°C° 0 mm 2 m/s 763 mmHg 62%
    17:00 +26°C° 0 mm 2 m/s 763 mmHg 63%
    18:00 +26°C° 0 mm 2 m/s 763 mmHg 65%
    19:00 +26°C° 0 mm 3 m/s 762 mmHg 67%
    20:00 +25°C° 0 mm 3 m/s 762 mmHg 69%
    21:00 +24°C° 0 mm 3 m/s 762 mmHg 70%
    22:00 +23°C° 0 mm 2 m/s 762 mmHg 72%
    23:00 +22°C° 0 mm 3 m/s 762 mmHg 70%

    Après-demain, 18 Juillet, Mercredi

    Heure Température Précipitation Vent Pression Humidité
    00:00 +22°C° 0 mm 3 m/s 762 mmHg 68%
    01:00 +22°C° 0 mm 3 m/s 762 mmHg 66%
    02:00 +22°C° 0 mm 3 m/s 762 mmHg 65%
    03:00 +24°C° 0 mm 3 m/s 762 mmHg 64%
    04:00 +23°C° 0 mm 4 m/s 762 mmHg 62%
    05:00 +25°C° 0 mm 4 m/s 762 mmHg 58%
    06:00 +27°C° 0 mm 4 m/s 762 mmHg 54%
    07:00 +28°C° 0 mm 4 m/s 762 mmHg 50%
    08:00 +29°C° 0 mm 3 m/s 762 mmHg 47%
    09:00 +30°C° 0 mm 3 m/s 762 mmHg 43%
    10:00 +31°C° 0 mm 3 m/s 762 mmHg 40%
    11:00 +31°C° 0 mm 3 m/s 761 mmHg 41%
    12:00 +31°C° 0 mm 3 m/s 761 mmHg 41%
    13:00 +31°C° 0 mm 3 m/s 761 mmHg 41%
    14:00 +31°C° 0 mm 3 m/s 761 mmHg 41%
    15:00 +30°C° 0 mm 4 m/s 761 mmHg 41%
    16:00 +30°C° 0 mm 4 m/s 761 mmHg 40%
    17:00 +30°C° 0 mm 3 m/s 760 mmHg 44%
    18:00 +29°C° 0 mm 3 m/s 760 mmHg 48%
    19:00 +28°C° 0 mm 2 m/s 760 mmHg 52%
    20:00 +27°C° 0 mm 3 m/s 760 mmHg 53%
    21:00 +26°C° 0 mm 3 m/s 760 mmHg 53%
    22:00 +25°C° 0 mm 3 m/s 760 mmHg 53%
    23:00 +23°C° 0 mm 4 m/s 760 mmHg 54%

    19 Juillet, Jeudi

    Heure Température Précipitation Vent Pression Humidité
    00:00 +22°C° 0 mm 4 m/s 760 mmHg 54%
    01:00 +20°C° 0 mm 5 m/s 760 mmHg 54%
    02:00 +20°C° 0 mm 5 m/s 760 mmHg 58%
    03:00 +20°C° 0 mm 4 m/s 760 mmHg 61%
    04:00 +20°C° 0 mm 4 m/s 761 mmHg 65%
    05:00 +21°C° 0 mm 3 m/s 761 mmHg 63%
    06:00 +22°C° 0 mm 3 m/s 761 mmHg 62%
    07:00 +24°C° 0 mm 3 m/s 761 mmHg 60%
    08:00 +24°C° 0 mm 3 m/s 761 mmHg 60%
    09:00 +24°C° 0 mm 3 m/s 761 mmHg 60%
    10:00 +25°C° 0 mm 3 m/s 761 mmHg 61%
    11:00 +24°C° 0 mm 3 m/s 761 mmHg 63%
    12:00 +24°C° 0 mm 3 m/s 761 mmHg 66%
    13:00 +22°C° 0 mm 3 m/s 761 mmHg 68%
    14:00 +21°C° 0,3 mm 3 m/s 761 mmHg 73%
    15:00 +20°C° 0,3 mm 3 m/s 762 mmHg 78%
    16:00 +19°C° 0,3 mm 3 m/s 762 mmHg 84%
    17:00 +19°C° 0,3 mm 2 m/s 762 mmHg 86%
    18:00 +18°C° 0,3 mm 2 m/s 762 mmHg 89%
    19:00 +18°C° 0,3 mm 2 m/s 762 mmHg 92%
    20:00 +17°C° 0 mm 2 m/s 762 mmHg 93%
    21:00 +17°C° 0 mm 2 m/s 762 mmHg 94%
    22:00 +17°C° 0 mm 2 m/s 762 mmHg 95%
    23:00 +17°C° 0 mm 2 m/s 762 mmHg 95%

    20 Juillet, Vendredi

    Heure Température Précipitation Vent Pression Humidité
    00:00 +16°C° 0 mm 2 m/s 762 mmHg 96%
    01:00 +16°C° 0 mm 3 m/s 762 mmHg 96%
    02:00 +16°C° 0 mm 3 m/s 762 mmHg 96%
    03:00 +16°C° 0 mm 3 m/s 762 mmHg 95%
    04:00 +16°C° 0 mm 3 m/s 761 mmHg 95%
    05:00 +17°C° 0 mm 2 m/s 761 mmHg 92%
    06:00 +18°C° 0 mm 2 m/s 761 mmHg 88%
    07:00 +18°C° 0 mm 2 m/s 760 mmHg 85%
    08:00 +19°C° 0,1 mm 3 m/s 760 mmHg 82%
    09:00 +20°C° 0,1 mm 3 m/s 760 mmHg 78%
    10:00 +21°C° 0,1 mm 3 m/s 760 mmHg 75%
    11:00 +21°C° 0,2 mm 4 m/s 760 mmHg 76%
    12:00 +21°C° 0,2 mm 4 m/s 759 mmHg 77%
    13:00 +21°C° 0,2 mm 4 m/s 759 mmHg 78%
    14:00 +21°C° 0,4 mm 4 m/s 759 mmHg 80%
    15:00 +21°C° 0,4 mm 4 m/s 759 mmHg 81%
    16:00 +20°C° 0,4 mm 4 m/s 759 mmHg 83%
    17:00 +20°C° 0,3 mm 4 m/s 759 mmHg 84%
    18:00 +20°C° 0,3 mm 4 m/s 758 mmHg 85%
    19:00 +20°C° 0,3 mm 4 m/s 758 mmHg 86%
    20:00 +19°C° 0,1 mm 4 m/s 758 mmHg 89%
    21:00 +18°C° 0,1 mm 3 m/s 758 mmHg 92%
    22:00 +17°C° 0,1 mm 3 m/s 758 mmHg 95%
    23:00 +17°C° 0 mm 3 m/s 758 mmHg 95%

    21 Juillet, Samedi

    Heure Température Précipitation Vent Pression Humidité
    00:00 +17°C° 0 mm 3 m/s 758 mmHg 96%
    01:00 +17°C° 0 mm 3 m/s 758 mmHg 96%
    02:00 +16°C° 0 mm 3 m/s 758 mmHg 96%
    03:00 +16°C° 0 mm 3 m/s 758 mmHg 96%
    04:00 +16°C° 0 mm 3 m/s 758 mmHg 95%
    05:00 +16°C° 0 mm 3 m/s 758 mmHg 94%
    06:00 +17°C° 0 mm 3 m/s 758 mmHg 93%
    07:00 +17°C° 0 mm 3 m/s 758 mmHg 92%
    08:00 +17°C° 0 mm 3 m/s 758 mmHg 90%
    09:00 +17°C° 0 mm 3 m/s 758 mmHg 87%
    10:00 +18°C° 0 mm 3 m/s 758 mmHg 84%
    11:00 +18°C° 0 mm 3 m/s 758 mmHg 82%
    12:00 +18°C° 0 mm 3 m/s 758 mmHg 80%
    13:00 +18°C° 0 mm 3 m/s 759 mmHg 78%
    14:00 +18°C° 0 mm 4 m/s 759 mmHg 76%
    15:00 +18°C° 0 mm 4 m/s 759 mmHg 74%
    16:00 +19°C° 0 mm 4 m/s 759 mmHg 72%
    17:00 +18°C° 0 mm 4 m/s 759 mmHg 74%
    18:00 +18°C° 0 mm 4 m/s 759 mmHg 75%
    19:00 +17°C° 0 mm 4 m/s 759 mmHg 77%
    20:00 +16°C° 0 mm 3 m/s 759 mmHg 81%
    21:00 +14°C° 0 mm 3 m/s 759 mmHg 86%
    22:00 +13°C° 0 mm 3 m/s 759 mmHg 90%
    23:00 +12°C° 0 mm 3 m/s 759 mmHg 91%
    Voir plus